Location: Lafig�re
(44.4503°N, 4.0357°E)
Time: 16:23:27
(UTC+00:00)

S-56A Canister/Altair - Pass Details

Date: 28 January 2021
Orbit: 631 x 2501 km, 38.9° (Epoch: 04 March)

Event Time Altitude Azimuth Distance (km) Brightness Sun altitude
Rises 02:55:23 0° 258° (WSW) 3,059 - -44.5°
Reaches altitude 10° 02:57:54 10° 251° (WSW) 2,053 - -44.1°
Maximum altitude 03:02:09 42° 180° (S) 896 - -43.4°
Drops below altitude 10° 03:06:30 10° 109° (ESE) 2,099 - -42.6°
Exits shadow 03:07:18 - 107° (ESE) 2,414 10.6 -42.5°
Sets 03:09:06 0° 103° (ESE) 3,138 11.3 -42.2°
